Location: Unspecified
(17.6330°N, 0.0000°E)
Time: 13:49:38
(UTC+00:00)

S-56A Canister/Altair - Pass Details

Date: 26 June 2019
Orbit: 632 x 2500 km, 38.9° (Epoch: 22 July)

Event Time Altitude Azimuth Distance (km) Brightness Sun altitude
Rises 15:22:08 0° 276° (W) 5,670 12.7 43.2°
Reaches altitude 10° 15:27:19 10° 288° (WNW) 4,355 12.5 42.0°
Maximum altitude 15:35:40 23° 336° (NNW) 2,825 11.2 40.1°
Drops below altitude 10° 15:41:59 10° 27° (NNE) 3,195 10.7 38.7°
Sets 15:45:06 0° 42° (NE) 3,885 10.9 37.9°
